Regional Weather Roundup
Issued by NWS San Diego, CA

Home | Current Version | Previous Version | Text Only | Print | Product List | Glossary On
Versions: 1 2 3 4 5 6 7 8 9 10 11 12 13 14 15 16 17 18 19 20 21 22 23 24 25 26 27 28 29 30 31 32 33 34 35 36 37 38 39 40 41 42 43 44 45 46 47 48 49 50
000
ASUS46 KSGX 221010
RWRSGX

SAN DIEGO HOURLY WEATHER ROUNDUP
NATIONAL WEATHER SERVICE SAN DIEGO CA
300 AM PDT FRI AUG 22 2014

NOTE: "FAIR" INDICATES FEW OR NO CLOUDS BELOW 12,000 FEET WITH NO
SIGNIFICANT WEATHER AND/OR OBSTRUCTIONS TO VISIBILITY.

CAZ042-043-060-061-PZZ750-775-221100-

GREATER SAN DIEGO AREA

CITY           SKY/WX    TMP DP  RH WIND       PRES   REMARKS
LINDBERGH FLD  MOCLDY    70  64  81 CALM      29.96S
POINT LOMA       N/A     67  64  90 NW6         N/A
NATIONAL CITY    N/A     69  65  86 CALM      29.95F
CHULA VISTA      N/A     67  64  89 CALM      29.88F
IMPERIAL BEACH CLOUDY    70  65  84 NW5       29.94F
BROWN FIELD    MOCLDY    66  62  87 CALM      29.95F
MONTGOMERY FLD FAIR      69  63  81 CALM      29.96S

$$

NORTH SAN DIEGO COUNTY

CITY           SKY/WX    TMP DP  RH WIND       PRES   REMARKS
CAMP PENDLETON FAIR      65  61  87 E3        29.94F
OCEANSIDE AP   CLOUDY    67  63  87 CALM      29.93F
VISTA            N/A     67  63  86 CALM      29.92F
CARLSBAD       CLOUDY    68  64  87 CALM      29.94S
DEL MAR          N/A     67  64  91 CALM      29.97S
LA JOLLA SCRIP   N/A     67  65  91 CALM      29.92S
FALLBROOK        N/A     65  65 100 CALM      29.95S
ESCONDIDO        N/A     67  63  86 W2        29.96S
SAN MARCOS       N/A     66  62  86 CALM      29.92F
POWAY            N/A     64  60  86 CALM      29.95F
R. PENASQUITOS   N/A     66  63  91 CALM      29.94F

$$

EAST SAN DIEGO COUNTY

CITY           SKY/WX    TMP DP  RH WIND       PRES   REMARKS
RAMONA         FAIR      62  59  90 CALM      29.97F
GILLESPIE FLD  FAIR      66  63  88 CALM      29.97S
LA MESA          N/A     67  64  91 CALM      29.88F
JAMUL            N/A     63  60  90 CALM      29.92F
DESCANSO N       N/A     59  54  82 CALM      29.82F
MT. LAGUNA OBS   N/A     57  50  79 W3        29.76S
CAMPO            N/A     56  50  80 E6        29.99S

$$

ORANGE COUNTY AND THE LOS ANGELES BASIN

CITY           SKY/WX    TMP DP  RH WIND       PRES   REMARKS
JOHN WAYNE AP  FAIR      71  65  81 CALM      29.94S
LAGUNA BEACH     N/A     68  64  86 NW1       29.90F
LAKE FOREST FR   N/A     65  58  79 CALM      29.85S
SANTA ANA        N/A     68  64  86 CALM      29.90S
HUNTINGTON BCH   N/A     67  65  92 CALM      29.96S
LOS ALAMITOS   FAIR      67  63  86 NW3       29.95S
FULLERTON      FAIR      70  61  73 CALM      29.94S
LONG BEACH     FAIR      68  63  84 NW5       29.95S
L.A. AP        FAIR      68  62  81 W7        29.95S
L.A. DOWNTOWN  FAIR      67  62  84 CALM      29.95R

$$

THE INLAND EMPIRE

CITY           SKY/WX    TMP DP  RH WIND       PRES   REMARKS
CHINO          FAIR      66  61  84 W3        29.97R
ONTARIO        FAIR      71  61  70 SW3       29.96S
RIVERSIDE AP   FAIR      70  61  73 CALM      29.96S
RIV CYN CREST    N/A     69  69  98 CALM      29.94R
MORENO VALLEY    N/A     67  64  91 CALM      29.14F
MARCH ARB      FAIR      66  62  86 W1        29.98S
HORSETHIEF CYN   N/A     67  55  65 CALM      29.95S
PERRIS           N/A     69  62  80 CALM      29.95S
MENIFEE          N/A     68  62  81 CALM      30.03S
HEMET EAST       N/A     67  49  53 CALM      29.94S
FRENCH VALLEY  FAIR      66  61  82 CALM      29.97F
TEMECULA         N/A     65  62  89 CALM      29.95R

$$

SAN BERNARDINO AND RIVERSIDE COUNTY MOUNTAINS

CITY           SKY/WX    TMP DP  RH WIND       PRES   REMARKS
BIG BEAR AP    FAIR      45  43  93 CALM      30.24F
BIG BEAR SHEA    N/A     45  40  85 CALM      30.00F
ANGELUS OAKS     N/A     55  49  81 CALM      29.85F
PINE COVE        N/A     56  50  81 N2        29.82F

$$

SOUTHERN DESERT INCLUDING THE COACHELLA VALLEY

CITY           SKY/WX    TMP DP  RH WIND       PRES   REMARKS
PALM SPRINGS   FAIR      77  60  55 CALM      29.91S
THOUSAND PALMS   N/A     75  59  58 SE3       29.87S
PALM DESERT      N/A     74  64  69 CALM      29.17S
THERMAL        FAIR      68  58  70 SW3       29.87S
BLYTHE         FAIR      70  67  90 NW3       29.92F
IMPERIAL AP    FAIR      71  67  87 SE6       29.89S
EL CENTRO NAS  FAIR      70  66  87 E6        29.89S
YUMA AZ        FAIR      72  65  78 N6        29.91S

$$

UPPER DESERT

CITY           SKY/WX    TMP DP  RH WIND       PRES   REMARKS
VICTORVILLE AP FAIR      66  52  59 SW3       30.02S
HESPERIA         N/A     66  55  66 CALM      30.00S
APPLE VALLEY     N/A     68  53  59 CALM      30.09S
GRAY BUTTE AP  FAIR      63  48  57 S2        30.02S
PALMDALE       FAIR      72  50  45 SW9       30.00F
LANCASTER      FAIR      69  53  56 W7        29.99R
EDWARDS AFB    FAIR      71  55  55 S10       29.96S
DAGGETT        FAIR      72  56  57 N3        29.97S
29 PALMS N     FAIR      69  57  65 CALM      30.04S
NEEDLES        FAIR      76  59  55 W3        29.94S

$$

REGIONAL REPORTS

CITY           SKY/WX    TMP DP  RH WIND       PRES   REMARKS
SANTA BARBARA  MOCLDY    62  59  90 CALM      29.94F
SANDBERG       FAIR      68  48  48 NW10      30.12F
MT. WILSON       N/A     59  43  55 MISG        N/A
LAS VEGAS NV   FAIR      73  52  47 S6        29.94S
PHOENIX AZ     FAIR      74  65  73 E3        29.95R
TIJUANA        CLOUDY    68  61  77 CALM      29.98S
ENSENADA NW      N/A     70  32  24 CALM      29.91F

$$

OFFSHORE ISLANDS

CITY           SKY/WX    TMP DP  RH WIND       PRES   REMARKS
CATALINA ARPT  FAIR      64  58  80 SE3       29.98S
SAN NICOLAS IS FAIR     N/A N/A N/A CALM      29.95F

$$

MARINE AND OFFSHORE BUOY REPORTS

STATION/POSITION SKY/WX   TEMP    WIND        PRES    SWELL
                          AIR SEA DIR/SP/G            HT/PER/DIR
                          (F)     (DEG/KT/KT) (MB)    (FT/S/D)
TANNER BANKS               65 69  320/  8/ 10 1014.2F   5/180/11
S CLEMENTE BASIN           67 70  310/  6/  8 1014.0F   5/190/10
SAN NICOLAS IS.               66                N/A     3/180/11
SO. S. ROSA ISLA           62 67  310/ 10/ 12 1013.8F   5/10
W. S. BARBARA CH           61 62  320/ 12/ 14 1013.6S   3/190/11
S. MONICA BASIN            67 72   CALM  /  4 1013.6F   3/160/10
S PEDRO CHANNEL               69                N/A     2/170/11
DANA POINT                    71                N/A     3/170/12
CMP PENDLETON NS              72                N/A     2/210/11
OCEANSIDE OFFSHR              73                N/A     3/190/11
TORREY PINES OTR              73                N/A     2/200/12
LA JOLLA 1                 70 71   40/  4/  5 1014.0R
MISSION BAY BUOY              71                N/A     3/190/11
SAN DIEGO BAY                 74              1014.5R
POINT LOMA SOUTH              73                N/A     3/180/11

$$




USA.gov is the U.S. government's official web portal to all federal, state and local government web resources and services.